Washington County, Texas, United States
Lat: 30.22N, Lon: 96.44W
Wx Zone: TXZ197
Local Info
Past Weather Observations for Today

NOTE: This archive is for the closest National Weather Service station to Washington County. Information may differ from the station used for current weather conditions.

Click here for Long-term Archive

Time Weather Temperature Dewpoint Humidity Pressure Winds Precip Visibility
21:35
Overcast
63°F / 17°C 57°F / 14°C 83% 30.21 in
(1023 mb)
SSE 10.4 mph
(SSE 17 kph)
- 10SM
21:15
Overcast
63°F / 17°C 57°F / 14°C 83% 30.21 in
(1023 mb)
SE 11.5 mph
(SE 19 kph)
- 10SM
20:55
Overcast
63°F / 17°C 57°F / 14°C 83% 30.21 in
(1023 mb)
SE 12.7 mph
(SE 20 kph)
- 10SM
20:35
Mostly Cloudy
63°F / 17°C 57°F / 14°C 83% 30.21 in
(1023 mb)
SE 13.8 mph
(SE 22 kph)
- 10SM
20:15
Overcast
63°F / 17°C 57°F / 14°C 83% 30.21 in
(1023 mb)
SE 11.5 mph
(SE 19 kph)
- 10SM
19:55
Overcast
64°F / 18°C 57°F / 14°C 78% 30.21 in
(1023 mb)
SE 12.7 mph
(SE 20 kph)
- 10SM
19:35
Partly Cloudy
64°F / 18°C 57°F / 14°C 78% 30.21 in
(1023 mb)
SE 11.5 mph
(SE 19 kph)
- 10SM
19:15
Partly Cloudy
64°F / 18°C 57°F / 14°C 78% 30.21 in
(1023 mb)
SE 12.7 mph
(SE 20 kph)
- 10SM
18:55
Mostly Cloudy
66°F / 19°C 57°F / 14°C 73% 30.21 in
(1023 mb)
SE 13.8 mph
(SE 22 kph)
- 10SM
18:35
Partly Cloudy
66°F / 19°C 57°F / 14°C 73% 30.21 in
(1023 mb)
SE 13.8 mph
(SE 22 kph)
- 10SM
18:15
Partly Cloudy
68°F / 20°C 57°F / 14°C 69% 30.21 in
(1023 mb)
SE 8.1 mph
(SE 13 kph)
- 10SM
17:55
Mostly Cloudy
68°F / 20°C 57°F / 14°C 69% 30.21 in
(1023 mb)
SE 10.4 mph
(SE 17 kph)
- 10SM
17:35
Overcast
72°F / 22°C 57°F / 14°C 61% 30.21 in
(1023 mb)
SE 13.8 mph
(SE 22 kph)
- 10SM
17:15
Partly Cloudy
73°F / 23°C 57°F / 14°C 57% 30.21 in
(1023 mb)
SE 11.5 mph
(SE 19 kph)
- 10SM
16:55
Mostly Cloudy
73°F / 23°C 57°F / 14°C 57% 30.21 in
(1023 mb)
SE 9.2 mph
(SE 15 kph)
- 10SM
16:35
Overcast
73°F / 23°C 57°F / 14°C 57% 30.21 in
(1023 mb)
SE 9.2 mph
(SE 15 kph)
- 10SM
16:15
Overcast
73°F / 23°C 57°F / 14°C 57% 30.21 in
(1023 mb)
ESE 6.9 mph
(ESE 11 kph)
- 10SM
15:55
Partly Cloudy
73°F / 23°C 55°F / 13°C 53% 30.21 in
(1023 mb)
S 6.9 mph
(S 11 kph)
- 10SM
15:35
Partly Cloudy
77°F / 25°C 55°F / 13°C 47% 30.21 in
(1023 mb)
S 9.2 mph
(S 15 kph)
- 10SM
15:15
Mostly Cloudy
77°F / 25°C 54°F / 12°C 44% 30.24 in
(1024 mb)
S 9.2 mph
(S 15 kph)
- 10SM
14:55
Overcast
75°F / 24°C 55°F / 13°C 50% 30.24 in
(1024 mb)
SW 9.2 mph
(SW 15 kph)
- 10SM
14:35
Overcast
75°F / 24°C 55°F / 13°C 50% 30.27 in
(1025 mb)
S 5.8 mph
(S 9 kph)
- 10SM
14:15
Overcast
73°F / 23°C 55°F / 13°C 53% 30.27 in
(1025 mb)
SSE 8.1 mph
(SSE 13 kph)
- 10SM
13:55
Overcast
73°F / 23°C 57°F / 14°C 57% 30.27 in
(1025 mb)
SE 6.9 mph
(SE 11 kph)
- 10SM
13:35
Overcast
72°F / 22°C 57°F / 14°C 61% 30.3 in
(1026 mb)
SSE 6.9 mph
(SSE 11 kph)
- 10SM
13:15
Overcast
72°F / 22°C 57°F / 14°C 61% 30.3 in
(1026 mb)
S 4.6 mph
(S 7 kph)
- 10SM
12:55
Overcast
72°F / 22°C 57°F / 14°C 61% 30.3 in
(1026 mb)
SE 3.5 mph
(SE 6 kph)
- 10SM
12:35
Overcast
70°F / 21°C 57°F / 14°C 64% 30.33 in
(1027 mb)
Calm - 10SM
12:15
Mostly Cloudy
70°F / 21°C 57°F / 14°C 64% 30.33 in
(1027 mb)
SW 3.5 mph
(SW 6 kph)
- 10SM
11:55
Mostly Cloudy
68°F / 20°C 57°F / 14°C 69% 30.36 in
(1028 mb)
Calm - 10SM
11:35
Overcast
68°F / 20°C 55°F / 13°C 64% 30.36 in
(1028 mb)
SE 4.6 mph
(SE 7 kph)
- 10SM
11:15
Overcast
66°F / 19°C 55°F / 13°C 68% 30.36 in
(1028 mb)
Calm - 10SM
10:55
Overcast
64°F / 18°C 55°F / 13°C 73% 30.36 in
(1028 mb)
Calm - 10SM
10:35
Overcast
64°F / 18°C 54°F / 12°C 68% 30.36 in
(1028 mb)
Calm - 10SM
10:15
Overcast
63°F / 17°C 52°F / 11°C 68% 30.36 in
(1028 mb)
ESE 4.6 mph
(ESE 7 kph)
- 10SM
09:55
Overcast
63°F / 17°C 52°F / 11°C 68% 30.36 in
(1028 mb)
SE 4.6 mph
(SE 7 kph)
- 10SM
09:35
Mostly Cloudy
63°F / 17°C 50°F / 10°C 64% 30.36 in
(1028 mb)
SE 8.1 mph
(SE 13 kph)
- 10SM
09:15
Partly Cloudy
61°F / 16°C 50°F / 10°C 68% 30.36 in
(1028 mb)
SE 4.6 mph
(SE 7 kph)
- 10SM
08:55
Partly Cloudy
59°F / 15°C 50°F / 10°C 72% 30.36 in
(1028 mb)
ESE 4.6 mph
(ESE 7 kph)
- 10SM
08:35
Mostly Cloudy
55°F / 13°C 50°F / 10°C 82% 30.36 in
(1028 mb)
Calm - 10SM
08:15
Mostly Cloudy
54°F / 12°C 48°F / 9°C 82% 30.36 in
(1028 mb)
Calm - 10SM
07:55
Clear
52°F / 11°C 48°F / 9°C 88% 30.36 in
(1028 mb)
Calm - 10SM
07:35
Clear
52°F / 11°C 48°F / 9°C 88% 30.36 in
(1028 mb)
Calm - 10SM
07:15
Clear
54°F / 12°C 48°F / 9°C 82% 30.36 in
(1028 mb)
Calm - 10SM
06:55
Clear
52°F / 11°C 48°F / 9°C 88% 30.36 in
(1028 mb)
Calm - 10SM
06:35
Clear
54°F / 12°C 48°F / 9°C 82% 30.36 in
(1028 mb)
Calm - 10SM
06:15
Clear
54°F / 12°C 48°F / 9°C 82% 30.33 in
(1027 mb)
Calm - 10SM
05:55
Clear
54°F / 12°C 48°F / 9°C 82% 30.33 in
(1027 mb)
Calm - 10SM
05:35
Partly Cloudy
55°F / 13°C 50°F / 10°C 82% 30.33 in
(1027 mb)
Calm - 10SM
05:15
Overcast
57°F / 14°C 50°F / 10°C 77% 30.33 in
(1027 mb)
Calm - 10SM
04:55
Overcast
57°F / 14°C 52°F / 11°C 82% 30.33 in
(1027 mb)
Calm - 10SM
04:35
Overcast
57°F / 14°C 54°F / 12°C 88% 30.3 in
(1026 mb)
ENE 3.5 mph
(ENE 6 kph)
- 10SM
04:15
Partly Cloudy
55°F / 13°C 54°F / 12°C 94% 30.3 in
(1026 mb)
ENE 3.5 mph
(ENE 6 kph)
- 10SM
03:55
Clear
55°F / 13°C 54°F / 12°C 94% 30.3 in
(1026 mb)
ENE 3.5 mph
(ENE 6 kph)
- 10SM
03:35
Clear
55°F / 13°C 54°F / 12°C 94% 30.3 in
(1026 mb)
ENE 4.6 mph
(ENE 7 kph)
- 10SM
03:15
Clear
57°F / 14°C 55°F / 13°C 94% 30.3 in
(1026 mb)
ENE 3.5 mph
(ENE 6 kph)
- 10SM
02:55
Clear
55°F / 13°C 54°F / 12°C 94% 30.3 in
(1026 mb)
NE 4.6 mph
(NE 7 kph)
- 10SM
02:35
Clear
55°F / 13°C 54°F / 12°C 94% 30.3 in
(1026 mb)
NE 3.5 mph
(NE 6 kph)
- 10SM
02:15
Clear
55°F / 13°C 54°F / 12°C 94% 30.3 in
(1026 mb)
Calm - 10SM
01:55
Clear
57°F / 14°C 54°F / 12°C 88% 30.3 in
(1026 mb)
Calm - 10SM
01:35
Clear
57°F / 14°C 54°F / 12°C 88% 30.3 in
(1026 mb)
Calm - 10SM
01:15
Clear
57°F / 14°C 54°F / 12°C 88% 30.3 in
(1026 mb)
Calm - 10SM
00:55
Clear
57°F / 14°C 52°F / 11°C 82% 30.3 in
(1026 mb)
Calm - 10SM
00:35
Clear
57°F / 14°C 52°F / 11°C 82% 30.3 in
(1026 mb)
Calm - 10SM
00:15
Clear
59°F / 15°C 52°F / 11°C 77% 30.3 in
(1026 mb)
Calm - 10SM
Time Weather Temperature Dewpoint Humidity Pressure Winds Precip Visibility


Weather for websites

WeatherForYou.com, LLC is not responsible for any damages or problems caused by this service. Current weather conditions are obtained from the closest station including government and personal stations which may have varying degrees of accuracy. Weather forecasts are derived from the NOAA NDFD. Like all things, this site belongs to Jesus Christ... He just trusts us to maintain it. If you have any questions or comments email webmaster@weatherforyou.com

Copyright © 2016, WeatherForYou.com LLC. All rights reserved.